OSCAR 7 1 07530U 74089B 25350.31583848 -.00000027 00000-0 12201-3 0 9997 2 07530 101.9965 356.6211 0012382 119.9036 255.3708 12.53694266337600 OSCAR 11 (UOSAT 2) 1 14781U 84021B 25350.21796526 .00000944 00000-0 10316-3 0 9990 2 14781 97.7812 313.1924 0009208 72.6385 287.5839 14.90154234229873 OSCAR 19 (LUSAT) 1 20442U 90005G 25350.31402403 .00000151 00000-0 70898-4 0 9991 2 20442 98.8959 1.9810 0012008 27.3426 332.8388 14.34046139876186 EYESAT A 1 22825U 93061C 25350.14534614 .00000117 00000-0 61886-4 0 9993 2 22825 98.7143 52.4207 0007318 278.3119 81.7234 14.30877933680827 ITAMSAT 1 22826U 93061D 25350.17894711 .00000126 00000-0 64511-4 0 9992 2 22826 98.7091 52.3539 0007848 259.5835 100.4463 14.31298926681139 RADIO ROSTO 1 23439U 94085A 25350.32777488 -.00000183 00000-0 -40048-2 0 9990 2 23439 64.8158 238.9479 0149847 37.8292 323.3052 11.27582280275289 JAS 2 1 24278U 96046B 25350.17409678 -.00000040 00000-0 -41750-5 0 9993 2 24278 98.5461 218.8486 0349294 211.0519 146.9553 13.53262914448415 TECHSAT 1B 1 25397U 98043D 25350.21904655 .00000095 00000-0 61187-4 0 9998 2 25397 98.9923 333.5115 0001961 51.8010 308.3345 14.24378120425280 ISS (ZARYA) 1 25544U 98067A 25350.08808596 .00006404 00000-0 12171-3 0 9998 2 25544 51.6306 125.8981 0003174 255.6781 104.3856 15.49613604543374 PCSAT 1 26931U 01043C 25350.29856494 .00000190 00000-0 10190-3 0 9995 2 26931 67.0515 357.2751 0007424 269.7379 90.2872 14.31856837264261 SAUDISAT 1C 1 27607U 02058C 25350.31348273 .00001689 00000-0 21941-3 0 9997 2 27607 64.5541 334.5530 0072390 295.9334 63.4324 14.82406516237346 CUTE-1 1 27844U 03031E 25350.31354611 .00000373 00000-0 18066-3 0 9998 2 27844 98.6763 356.1705 0009585 3.3014 356.8227 14.24182384165643 CUBESAT XI 4 1 27848U 03031J 25350.00063952 .00000308 00000-0 15464-3 0 9990 2 27848 98.6791 355.7209 0009837 21.7811 338.3784 14.23489696165313 MOZHAYETS 4 1 27939U 03042A 25350.38810514 .00000742 00000-0 12388-3 0 9992 2 27939 98.3363 164.6845 0012202 124.7896 348.2039 14.72980432188637 CUBESAT XI 5 1 28895U 05043F 25350.31648954 .00001499 00000-0 24726-3 0 9996 2 28895 98.2718 137.4546 0015297 67.7115 292.5711 14.71914728 74844 CUTE-1.7+APD 2 1 32785U 08021C 25350.35688742 .00005186 00000-0 34959-3 0 9997 2 32785 97.8078 323.4965 0007867 295.9928 64.0489 15.07088525957632 SEEDS 1 32791U 08021J 25349.92123127 .00013520 00000-0 53845-3 0 9992 2 32791 97.7443 335.1764 0001650 190.0708 170.0496 15.25365799959286 YUBELEINY 1 32953U 08025A 25350.33211454 .00000040 00000-0 21458-3 0 9992 2 32953 82.5016 109.1884 0018892 353.1643 6.9177 12.43172251796976 KKS-1 (KISEKI) 1 33499U 09002H 25350.31942526 .00001652 00000-0 21281-3 0 9997 2 33499 98.1179 264.9677 0008351 153.3315 206.8329 14.82446536909094 SWISSCUBE 1 35932U 09051B 25350.26138418 .00001296 00000-0 26844-3 0 9990 2 35932 98.4146 249.9050 0008056 64.8690 295.3346 14.61967930862427 BEESAT 1 35933U 09051C 25350.17990780 .00001094 00000-0 23162-3 0 9995 2 35933 98.4076 249.8270 0006560 77.3485 282.8448 14.61286553862454 ITUPSAT 1 1 35935U 09051E 25350.14944335 .00000954 00000-0 20867-3 0 9992 2 35935 98.4166 249.1717 0008753 86.0173 274.2027 14.60040779862020 XIWANG-1 (HOPE-1) 1 36122U 09072B 25350.31361780 -.00000024 00000-0 53840-4 0 9997 2 36122 100.3771 302.2860 0007027 294.3418 65.6961 13.16432250768947 TISAT 1 1 36799U 10035E 25350.32398830 .00013995 00000-0 58753-3 0 9992 2 36799 98.0599 276.9771 0003710 125.7478 234.4103 15.23586092839783 JUGNU 1 37839U 11058B 25350.29070222 .00000468 00000-0 10478-3 0 9995 2 37839 19.9625 339.5316 0018497 215.8790 262.8372 14.13698301733116 SRMSAT 1 37841U 11058D 25350.33859538 .00000420 00000-0 84505-4 0 9999 2 37841 19.9718 86.1692 0011849 353.1268 48.2887 14.11512684731958 HORYU 2 1 38340U 12025D 25350.28774473 .00003465 00000-0 36984-3 0 9996 2 38340 98.1954 111.2314 0009293 64.0877 296.1296 14.89499453721487 STRAND 1 1 39090U 13009E 25350.22070046 .00000363 00000-0 13666-3 0 9997 2 39090 98.3821 170.0230 0009643 61.5164 298.6993 14.37008058670782 CUBEBUG 1 1 39153U 13018D 25350.30708796 .00003663 00000-0 33425-3 0 9997 2 39153 98.1424 137.5707 0012859 38.4948 321.7186 14.95695874683713 ZACUBE 1 39417U 13066B 25350.32953910 .00002912 00000-0 24034-3 0 9997 2 39417 97.8056 306.8800 0042012 135.5785 224.8820 14.99116660653316 TRITON 1 1 39427U 13066M 25350.29066075 .00001512 00000-0 19016-3 0 9990 2 39427 97.8315 259.3226 0093290 109.5615 251.5700 14.80506989647017 GOMX 1 1 39430U 13066Q 25350.24021096 .00002154 00000-0 33438-3 0 9990 2 39430 97.6592 197.1465 0129519 305.3014 53.6135 14.68603579643055 HUMSAT D 1 39433U 13066T 25349.98128998 .00079169 00000-0 10308-2 0 9991 2 39433 97.5008 351.7326 0008953 128.5731 231.6328 15.58442271658296 CUBEBUG 2 1 39440U 13066AA 25350.36071261 .00003012 00000-0 29360-3 0 9996 2 39440 97.8707 294.0275 0057985 273.6187 85.8401 14.92006833649716 FUNCUBE 1 1 39444U 13066AE 25350.17650766 .00006402 00000-0 43526-3 0 9998 2 39444 97.8067 313.4970 0040782 104.5183 256.0572 15.06016431652088 UWE-3 1 39446U 13066AG 25350.30160349 .00002952 00000-0 26810-3 0 9991 2 39446 97.8481 300.6541 0049716 207.2979 152.5628 14.95136913650234 UNISAT 6 1 40012U 14033C 25350.31323163 .00002854 00000-0 32034-3 0 9999 2 40012 97.7613 141.6883 0045340 312.1730 47.5639 14.86826537618971 DUCHIFAT 1 1 40021U 14033M 25350.34743957 .00029850 00000-0 72636-3 0 9996 2 40021 98.0788 22.5395 0007186 23.0120 337.1445 15.40888422627403 QB50P1 1 40025U 14033R 25349.92335186 .00007188 00000-0 39361-3 0 9991 2 40025 98.0967 343.7208 0010809 125.0403 235.1842 15.14518168625257 OBJECT G 1 40905U 15049G 25350.33744337 .00020484 00000-0 32302-3 0 9997 2 40905 97.4848 19.9895 0007205 156.4631 203.6953 15.53545764567945 LILACSAT 2 1 40908U 15049K 25350.36367422 .00012506 00000-0 26835-3 0 9999 2 40908 97.4914 15.8577 0007592 183.4874 176.6323 15.44834749567463 LQSAT 1 40958U 15057A 25350.24592797 .00001041 00000-0 15615-3 0 9991 2 40958 97.6605 347.8208 0017826 142.0947 218.1522 14.76456804548311 CHUBUSAT 2 1 41338U 16012B 25350.30082353 .00005308 00000-0 24605-3 0 9994 2 41338 30.9986 79.5307 0009116 14.1645 345.9250 15.18433726540574 CHUBUSAT 3 1 41339U 16012C 25350.36672663 .00004680 00000-0 22865-3 0 9998 2 41339 31.0051 84.6769 0009352 6.9507 353.1261 15.16529973540400 PRATHAM 1 41783U 16059A 25350.24823643 .00000862 00000-0 16140-3 0 9992 2 41783 97.8269 350.2549 0032867 81.6756 278.8173 14.66838936492693 ALSAT 1N 1 41789U 16059G 25350.31076987 .00001428 00000-0 25081-3 0 9990 2 41789 97.8022 356.8636 0027407 54.2521 306.1229 14.68880361493155